Regional Weather Roundup
Issued by NWS Kansas City/Pleasant Hill, MO

Home | Current Version | Previous Version | Graphics & Text | Print | Product List | Glossary Off
Versions: 1 2 3 4 5 6 7 8 9 10 11 12 13 14 15 16 17 18 19 20 21 22 23 24 25 26 27

000
ASUS43 KEAX 211510
RWREAX

WEATHER ROUNDUP FOR EASTERN KANSAS AND NORTHWEST MISSOURI
NATIONAL WEATHER SERVICE KANSAS CITY/PLEASANT HILL MO
1000 AM CDT WED JUN 21 2017

KSZ040-057-103>105-MOZ028-029-037-043-211600-
...KANSAS CITY METROPOLITAN AREA...

CITY           SKY/WX    TMP DP  RH WIND       PRES   REMARKS
K.C. INTL      MOSUNNY   82  68  62 SW14      29.91S
K.C. DOWNTOWN  SUNNY     85  66  53 SW14G22   29.90
LEES SUMMIT    SUNNY     83  68  60 SW9       29.93S
OLATHE - IXD   CLOUDY    82  67  60 S15       29.93F
OLATHE - OJC   CLOUDY    82  66  58 SW13      29.93F
LAWRENCE       SUNNY     84  67  56 S7        29.91S

$$

MOZ001>008-011>017-020>025-030>033-038>040-044>046-053-054-211600-
...NORTHERN AND CENTRAL MISSOURI...

CITY           SKY/WX    TMP DP  RH WIND       PRES   REMARKS
ST. JOSEPH     SUNNY     85  68  56 SW15      29.86F
MOSBY          SUNNY     82  63  51 SW9G16    29.90F
WARRENSBURG    SUNNY     81  64  57 S10       29.94S
WHITEMAN AFB   MOSUNNY   83  69  62 SW15      29.94
CLINTON        SUNNY     82  70  65 SW9       29.97R
SEDALIA        SUNNY     83  71  67 MISG      29.96S
WARSAW         NOT AVBL
CHILLICOTHE      N/A     84  68  58 VRB6      29.91S
KIRKSVILLE     MOSUNNY   76  69  79 E9        29.95

$$

MOZ041-047>049-056>058-063>065-088>090-097-211600-
...EASTERN AND SOUTHERN MISSOURI...

CITY           SKY/WX    TMP DP  RH WIND       PRES   REMARKS
ST. LOUIS INTL MOSUNNY   88  67  49 VRB6      29.97R HX  91
SPIRIT OF STL  MOSUNNY   84  68  58 SW6       29.96
COLUMBIA       SUNNY     83  67  58 SW12      29.97
JEFFERSON CITY SUNNY     83  67  58 S8        29.96R
ROLLA          SUNNY     81  68  64 S12       30.00S
OSAGE BEACH    SUNNY     83  67  58 SW10      30.00
SPRINGFIELD    SUNNY     83  60  45 S10       30.01S
BRANSON        MOSUNNY   82  64  54 CALM      30.03F
JOPLIN         SUNNY     84  69  60 S12       30.00R
WEST PLAINS    SUNNY     82  62  50 SW7       30.04S

$$

IAZ060-094-KSZ022-034>040-054-083-096-NEZ052-066-093-211600-
...KANSAS...SOUTHEAST NEBRASKA AND IOWA...

CITY           SKY/WX    TMP DP  RH WIND       PRES   REMARKS
TOPEKA         SUNNY     84  67  56 S10       29.89F
MANHATTAN      SUNNY     87  66  49 S16G22    29.86F
EMPORIA        MOSUNNY   83  66  56 SW12      29.93S
CHANUTE        SUNNY     82  67  60 SW14      29.96S
WICHITA        PTSUNNY   80  66  62 S13       29.93S
OMAHA          MOSUNNY   82  66  58 N13       29.84R
LINCOLN        SUNNY     84  65  52 S14       29.79
FALLS CITY     MOSUNNY   82  65  56 S12       29.84F
LAMONI         SUNNY     80  67  64 S8        29.89F
DES MOINES     PTSUNNY   72  64  76 SE13      29.88

$$





USA.gov is the U.S. government's official web portal to all federal, state and local government web resources and services.